Regional Weather Roundup
Issued by NWS Goodland, KS

Home | Current Version | Previous Version | Graphics & Text | Print | Product List | Glossary Off
Versions: 1 2 3 4 5 6 7 8 9 10 11 12 13 14 15 16 17 18 19 20 21 22 23 24 25 26 27 28 29 30 31 32 33 34 35 36 37 38 39 40 41 42 43 44 45 46 47 48 49 50

000
ASUS43 KGLD 281808
RWRGLD

GOODLAND FORECAST AREA HOURLY WEATHER ROUNDUP
NATIONAL WEATHER SERVICE GOODLAND KS
1200 PM MDT SUN MAY 28 2017

...OFFICIAL OBSERVATIONS...

CITY           SKY/WX    TMP DP  RH WIND       PRES   REMARKS
GOODLAND KS    SUNNY     70  45  40 NW10G21   30.17S
HILL CITY KS   SUNNY     78  44  29 NW10      30.10S
IMPERIAL NEB   SUNNY     75  36  24 N13G24    30.13F
MCCOOK NEB     MOSUNNY   78  40  25 NW14      30.09S
AKRON CO       MOSUNNY   68  40  35 NW12G20   30.23F
BURLINGTON CO  SUNNY     71  42  35 NW16G23   30.21S
LIMON CO       MOSUNNY   64  36  35 N9        30.28S
$$

...UNOFFICIAL OBSERVATIONS...

CITY           SKY/WX    TMP DP  RH WIND       PRES   REMARKS
LENORA KS        N/A     74  32  21 MISG        N/A
NORTON KS      SUNNY     73  41  31 W7G22     30.08S
SHARON SPRINGS   N/A     72  43  34 N13G20      N/A
TRENTON NEB      N/A     73  32  22 NW8         N/A
$$




USA.gov is the U.S. government's official web portal to all federal, state and local government web resources and services.